FW4092 Weather Reports


time (UTC)temp
F
wind
direction
speed
knots
gust
knots
rain 1hr
in
rain 24hr
in
rain mn
in
humidity
%
barometer
mb
20260901161058 63 112 0.9 5.2 0.00 0.00 0.00 49 1007.5
20260901160317 62 142 0.9 2.6 0.00 0.00 0.00 50 1007.7
20260901155815 62 143 0.9 3.5 0.00 0.00 0.00 50 1007.7
20260901155317 61 142 0.9 5.2 0.00 0.00 0.00 51 1007.8
20260901154813 60 140 0.9 5.2 0.00 0.00 0.00 51 1007.8
20260901154315 60 144 0.9 4.3 0.00 0.00 0.00 52 1007.8
20260901153817 59 142 1.7 3.5 0.00 0.00 0.00 52 1007.8
20260901153314 58 138 1.7 5.2 0.00 0.00 0.00 53 1007.9
20260901152814 58 148 0.9 5.2 0.00 0.00 0.00 54 1007.9
20260901152313 57 150 0.9 5.2 0.00 0.00 0.00 55 1008.0
20260901151816 57 162 1.7 5.2 0.00 0.00 0.00 56 1008.0
20260901151315 56 150 1.7 6.1 0.00 0.00 0.00 56 1008.0
20260901150810 56 150 2.6 7.0 0.00 0.00 0.00 56 1008.0
20260901150302 56 153 2.6 7.0 0.00 0.00 0.00 57 1007.9
20260901145758 55 144 3.5 7.0 0.00 0.00 0.00 57 1007.9
20260901145251 55 145 3.5 7.0 0.00 0.00 0.00 58 1007.8
20260901145010 54 144 3.5 6.1 0.00 0.00 0.00 59 1007.7
20260901144239 53 144 2.6 7.0 0.00 0.00 0.00 60 1007.4
20260901143732 53 155 2.6 7.0 0.00 0.00 0.00 61 1007.4
20260901143226 53 141 3.5 6.1 0.00 0.00 0.00 61 1007.3
20260901142721 52 137 3.5 6.1 0.00 0.00 0.00 62 1007.3
20260901142215 52 138 2.6 5.2 0.00 0.00 0.00 62 1007.3
20260901141709 52 143 2.6 5.2 0.00 0.00 0.00 62 1007.3
20260901141202 52 140 0.9 3.5 0.00 0.00 0.00 62 1007.2
20260901140659 52 144 0.0 1.7 0.00 0.00 0.00 62 1007.1
20260901140151 53 144 0.9 3.5 0.00 0.00 0.00 62 1007.0
20260901135644 53 144 1.7 3.5 0.00 0.00 0.00 62 1007.1
20260901135145 53 148 1.7 3.5 0.00 0.00 0.00 62 1007.0
20260901134632 53 144 1.7 4.3 0.00 0.00 0.00 61 1006.9
20260901134129 53 145 1.7 4.3 0.00 0.00 0.00 61 1007.0
20260901133627 53 145 0.9 3.5 0.00 0.00 0.00 61 1006.9
20260901133349 53 146 0.9 2.6 0.00 0.00 0.00 61 1006.9
20260901132627 53 150 0.9 1.7 0.00 0.00 0.00 61 1007.0
20260901132128 53 150 0.0 1.7 0.00 0.00 0.00 61 1007.0
20260901131627 53 150 0.0 1.7 0.00 0.00 0.00 61 1006.9
20260901131125 54 150 0.0 1.7 0.00 0.00 0.00 61 1007.0
20260901130623 54 151 0.0 1.7 0.00 0.00 0.00 60 1006.9
20260901130122 54 150 0.0 1.7 0.00 0.00 0.00 60 1007.0
20260901125620 54 150 0.9 4.3 0.00 0.00 0.00 60 1006.9
20260901125119 55 150 0.9 4.3 0.00 0.00 0.00 59 1006.8
20260901124633 55 150 1.7 4.3 0.00 0.00 0.00 60 1006.8
20260901124120 55 153 1.7 4.3 0.00 0.00 0.00 60 1006.8
20260901123619 55 163 1.7 3.5 0.00 0.00 0.00 59 1006.8
20260901123348 55 171 0.9 3.5 0.00 0.00 0.00 59 1006.9
20260901122619 55 226 0.9 2.6 0.00 0.00 0.00 58 1006.9
20260901122120 55 234 0.0 2.6 0.00 0.00 0.00 57 1006.8
20260901121847 56 259 0.0 0.9 0.00 0.00 0.00 58 1006.9
20260901121113 56 259 0.0 0.9 0.00 0.00 0.00 57 1006.9
20260901120610 56 259 0.0 0.9 0.00 0.00 0.00 58 1006.9
20260901115555 56 259 0.0 0.0 0.00 0.00 0.00 57 1006.9
20260901115048 56 259 0.0 0.0 0.00 0.00 0.00 57 1007.0
20260901114542 56 259 0.0 0.0 0.00 0.00 0.00 56 1007.0
20260901114037 57 259 0.0 0.0 0.00 0.00 0.00 56 1007.0
20260901113537 57 259 0.0 0.0 0.00 0.00 0.00 56 1007.0
20260901113037 57 259 0.0 0.0 0.00 0.00 0.00 56 1006.9
20260901112537 57 259 0.0 0.0 0.00 0.00 0.00 56 1007.0
20260901112306 57 259 0.0 0.0 0.00 0.00 0.00 56 1006.8
20260901111535 57 259 0.0 0.0 0.00 0.00 0.00 54 1006.8
20260901111041 57 259 0.0 0.0 0.00 0.00 0.00 55 1006.9
20260901110533 57 259 0.0 0.0 0.00 0.00 0.00 54 1006.9
20260901110033 57 259 0.0 0.0 0.00 0.00 0.00 53 1006.9
20260901105533 58 259 0.0 0.0 0.00 0.00 0.00 52 1006.9
20260901105034 58 259 0.0 0.0 0.00 0.00 0.00 51 1006.9
20260901104533 59 259 0.0 0.0 0.00 0.00 0.00 51 1007.0
20260901104033 59 259 0.0 0.0 0.00 0.00 0.00 51 1007.0
20260901103532 60 259 0.0 0.9 0.00 0.00 0.00 51 1007.0
20260901103033 60 259 0.0 0.9 0.00 0.00 0.00 51 1007.0
20260901102532 60 259 0.0 0.0 0.00 0.00 0.00 50 1007.1
20260901102033 60 259 0.0 0.9 0.00 0.00 0.00 50 1007.0
20260901101534 60 259 0.0 0.9 0.00 0.00 0.00 49 1007.0
20260901101032 60 259 0.0 0.0 0.00 0.00 0.00 49 1007.0
20260901100532 60 259 0.0 0.9 0.00 0.00 0.00 49 1007.0
20260901100032 61 259 0.0 2.6 0.00 0.00 0.00 49 1007.1
20260901095533 61 259 0.9 2.6 0.00 0.00 0.00 48 1007.1
20260901095031 61 259 0.9 2.6 0.00 0.00 0.00 48 1007.1
20260901094755 60 263 0.9 2.6 0.00 0.00 0.00 48 1007.2
20260901094029 60 263 0.9 2.6 0.00 0.00 0.00 48 1007.2
20260901093526 60 266 0.9 2.6 0.00 0.00 0.00 47 1007.1
20260901093026 60 275 0.0 1.7 0.00 0.00 0.00 47 1007.1
20260901092525 61 277 0.0 1.7 0.00 0.00 0.00 47 1007.2
20260901092023 60 278 0.0 1.7 0.00 0.00 0.00 47 1007.2
20260901091523 61 281 0.0 1.7 0.00 0.00 0.00 47 1007.3
20260901091023 61 281 0.0 1.7 0.00 0.00 0.00 47 1007.2
20260901090523 61 281 0.0 1.7 0.00 0.00 0.00 47 1007.2
20260901090016 61 281 0.0 2.6 0.00 0.00 0.00 47 1007.4
20260901085517 61 281 0.0 2.6 0.00 0.00 0.00 46 1007.3
20260901085240 61 284 0.0 1.7 0.00 0.00 0.00 46 1007.3
20260901084738 61 284 0.0 2.6 0.00 0.00 0.00 45 1007.2
20260901084018 61 284 0.0 2.6 0.00 0.00 0.00 45 1007.3
20260901083514 61 285 0.0 2.6 0.00 0.00 0.00 44 1007.4
20260901083243 61 298 0.0 1.7 0.00 0.00 0.00 45 1007.4
20260901082509 61 298 0.0 1.7 0.00 0.00 0.00 45 1007.3
20260901082002 61 298 0.0 1.7 0.00 0.00 0.00 44 1007.3
20260901081456 61 298 0.0 1.7 0.00 0.00 0.00 44 1007.4
20260901080949 61 298 0.0 1.7 0.00 0.00 0.00 43 1007.3
20260901080444 61 298 0.9 1.7 0.00 0.00 0.00 42 1007.3
20260901075938 61 299 0.9 1.7 0.00 0.00 0.00 41 1007.3
20260901075433 61 301 0.9 1.7 0.00 0.00 0.00 41 1007.3
20260901074926 61 301 0.9 1.7 0.00 0.00 0.00 40 1007.3
20260901074912 61 301 0.9 1.7 0.00 0.00 0.00 39 1007.3
20260901073915 61 301 0.0 0.9 0.00 0.00 0.00 39 1007.4
20260901073636 61 301 0.0 0.9 0.00 0.00 0.00 39 1007.4
20260901072902 61 301 0.0 1.7 0.00 0.00 0.00 39 1007.4
20260901072356 61 301 0.0 1.7 0.00 0.00 0.00 39 1007.5
20260901071850 62 302 0.0 0.9 0.00 0.00 0.00 38 1007.5
20260901071344 62 302 0.0 0.9 0.00 0.00 0.00 38 1007.4
20260901070839 62 302 0.0 1.7 0.00 0.00 0.00 38 1007.4
20260901070550 63 302 0.9 1.7 0.00 0.00 0.00 37 1007.4
20260901065827 64 302 0.9 2.6 0.00 0.00 0.00 36 1007.3
20260901065816 64 302 0.9 3.5 0.00 0.00 0.00 36 1007.3
20260901064816 65 300 1.7 3.5 0.00 0.00 0.00 36 1007.3
20260901064310 65 302 1.7 2.6 0.00 0.00 0.00 35 1007.3
20260901063804 65 297 0.9 2.6 0.00 0.00 0.00 35 1007.5
20260901063257 65 296 0.9 3.5 0.00 0.00 0.00 35 1007.5
20260901062752 65 296 1.7 2.6 0.00 0.00 0.00 35 1007.5
20260901062246 65 296 0.9 3.5 0.00 0.00 0.00 35 1007.7
20260901061740 65 285 0.9 3.5 0.00 0.00 0.00 35 1007.7
20260901061235 65 284 0.9 3.5 0.00 0.00 0.00 35 1007.8
20260901060727 65 282 0.9 3.5 0.00 0.00 0.00 35 1007.8
20260901060222 66 285 1.7 4.3 0.00 0.00 0.00 35 1007.7
20260901055716 66 288 1.7 4.3 0.00 0.00 0.00 35 1007.7
20260901055210 66 297 1.7 3.5 0.00 0.00 0.00 35 1007.7
20260901054704 66 298 1.7 3.5 0.00 0.00 0.00 34 1007.8
20260901054430 66 298 1.7 4.3 0.00 0.00 0.00 34 1007.7
20260901053930 66 288 1.7 4.3 0.00 0.00 0.00 34 1007.8
20260901053202 66 298 1.7 3.5 0.00 0.00 0.00 34 1007.7
20260901052702 67 296 1.7 3.5 0.00 0.00 0.00 34 1007.8
20260901052205 67 298 1.7 3.5 0.00 0.00 0.00 34 1007.8
20260901052140 67 295 1.7 3.5 0.00 0.00 0.00 34 1007.8
20260901050700 69 319 0.9 5.2 0.00 0.00 0.00 34 1007.7
20260901050201 69 329 1.7 5.2 0.00 0.00 0.00 34 1007.8
20260901045701 69 355 1.7 5.2 0.00 0.00 0.00 33 1007.8
20260901045200 70 327 2.6 7.8 0.00 0.00 0.00 33 1007.7
20260901044909 70 355 2.6 7.8 0.00 0.00 0.00 33 1007.7
20260901043701 70 313 2.6 7.0 0.00 0.00 0.00 32 1007.7
20260901043423 71 350 1.7 5.2 0.00 0.00 0.00 32 1007.7
20260901042659 71 343 1.7 5.2 0.00 0.00 0.00 32 1007.7
20260901042203 71 345 1.7 5.2 0.00 0.00 0.00 32 1007.5
20260901041659 72 0 2.6 9.6 0.00 0.00 0.00 31 1007.5
20260901041159 72 355 3.5 9.6 0.00 0.00 0.00 31 1007.4
20260901040700 72 346 3.5 9.6 0.00 0.00 0.00 31 1007.2
20260901040159 72 317 3.5 8.7 0.00 0.00 0.00 31 1007.2
20260901040150 72 355 3.5 8.7 0.00 0.00 0.00 31 1007.1
20260901035158 73 343 4.3 10.4 0.00 0.00 0.00 30 1007.0
20260901034656 73 347 4.3 10.4 0.00 0.00 0.00 31 1007.0
20260901034427 73 338 3.5 9.6 0.00 0.00 0.00 30 1007.0
20260901033655 73 344 3.5 8.7 0.00 0.00 0.00 30 1006.9
20260901033153 73 355 3.5 8.7 0.00 0.00 0.00 30 1006.9
20260901032654 74 53 2.6 8.7 0.00 0.00 0.00 30 1006.8
20260901032154 74 341 3.5 9.6 0.00 0.00 0.00 29 1006.7
20260901031656 74 0 3.5 9.6 0.00 0.00 0.00 29 1006.7
20260901031151 74 355 3.5 9.6 0.00 0.00 0.00 29 1006.6
20260901030651 75 351 3.5 9.6 0.00 0.00 0.00 29 1006.6
20260901030151 75 336 4.3 10.4 0.00 0.00 0.00 29 1006.6
20260901025652 75 328 3.5 10.4 0.00 0.00 0.00 29 1006.5
20260901025152 76 331 3.5 10.4 0.00 0.00 0.00 28 1006.6
20260901025142 76 355 3.5 10.4 0.00 0.00 0.00 28 1006.4
20260901024145 76 23 3.5 9.6 0.00 0.00 0.00 27 1006.2
20260901023638 77 337 3.5 12.2 0.00 0.00 0.00 27 1006.2
20260901023133 78 355 3.5 12.2 0.00 0.00 0.00 26 1006.1
20260901022855 78 350 3.5 12.2 0.00 0.00 0.00 26 1006.0
20260901022124 79 331 4.3 12.2 0.00 0.00 0.00 26 1005.9
20260901021615 79 342 4.3 12.2 0.00 0.00 0.00 25 1006.0
20260901021109 80 0 5.2 12.2 0.00 0.00 0.00 25 1005.9
20260901021058 80 12 5.2 12.2 0.00 0.00 0.00 24 1005.8
20260901020330 80 19 6.1 13.0 0.00 0.00 0.00 24 1005.8
20260901015815 81 0 6.1 13.0 0.00 0.00 0.00 23 1005.8
20260901015045 81 337 5.2 10.4 0.00 0.00 0.00 23 1005.8
20260901014812 82 0 5.2 12.2 0.00 0.00 0.00 23 1005.8
20260901014033 82 30 5.2 11.3 0.00 0.00 0.00 22 1005.7
20260901013532 83 5 4.3 12.2 0.00 0.00 0.00 22 1005.6
20260901013022 83 46 3.5 13.0 0.00 0.00 0.00 21 1005.6
20260901012514 84 40 4.3 13.0 0.00 0.00 0.00 21 1005.7
20260901012009 84 335 4.3 11.3 0.00 0.00 0.00 20 1005.7
20260901011503 85 50 3.5 8.7 0.00 0.00 0.00 20 1005.8
20260901010957 85 338 3.5 11.3 0.00 0.00 0.00 20 1005.6
20260901010451 85 34 3.5 11.3 0.00 0.00 0.00 20 1005.6
20260901005945 85 310 5.2 12.2 0.00 0.00 0.00 20 1005.7
20260901005439 84 355 6.1 12.2 0.00 0.00 0.00 19 1005.7
20260901004933 85 0 6.1 12.2 0.00 0.00 0.00 19 1005.8
20260901004427 85 5 5.2 12.2 0.00 0.00 0.00 19 1005.8
20260901003923 85 5 5.2 15.6 0.00 0.00 0.00 20 1006.0
20260901003415 85 345 5.2 15.6 0.00 0.00 0.00 19 1006.0
20260901003135 85 319 6.1 13.0 0.00 0.00 0.00 19 1005.9
20260901002404 85 355 6.1 12.2 0.00 0.00 0.00 20 1005.9
20260901001904 85 17 5.2 11.3 0.00 0.00 0.00 19 1005.8
20260901001401 85 347 6.1 13.0 0.00 0.00 0.00 20 1005.9
20260901000859 85 346 6.1 13.0 0.00 0.00 0.00 20 1005.9
20260901000624 84 305 5.2 12.2 0.00 0.00 0.00 20 1006.0
20260831235857 84 324 6.1 12.2 0.00 0.00 0.00 20 1005.9
20260831235357 83 336 6.1 12.2 0.00 0.00 0.00 20 1006.0
20260831234858 83 346 6.1 12.2 0.00 0.00 0.00 20 1006.0
20260831234357 84 5 5.2 11.3 0.00 0.00 0.00 20 1006.0
20260831233857 85 350 4.3 12.2 0.00 0.00 0.00 19 1006.1
20260831233617 85 346 5.2 12.2 0.00 0.00 0.00 19 1006.2
20260831232857 85 333 5.2 11.3 0.00 0.00 0.00 20 1006.1
20260831232357 86 313 4.3 11.3 0.00 0.00 0.00 19 1006.1
20260831232123 85 20 5.2 10.4 0.00 0.00 0.00 19 1006.2
20260831231357 86 330 5.2 11.3 0.00 0.00 0.00 19 1006.2
20260831230856 86 55 4.3 11.3 0.00 0.00 0.00 20 1006.4
20260831230357 86 336 3.5 8.7 0.00 0.00 0.00 19 1006.4
20260831225857 86 28 2.6 8.7 0.00 0.00 0.00 20 1006.5
20260831225624 86 39 3.5 10.4 0.00 0.00 0.00 19 1006.5
20260831224857 85 50 3.5 10.4 0.00 0.00 0.00 20 1006.6
20260831224357 85 21 3.5 8.7 0.00 0.00 0.00 20 1006.6
20260831223856 85 324 3.5 9.6 0.00 0.00 0.00 21 1006.6
20260831223356 85 40 3.5 10.4 0.00 0.00 0.00 20 1006.8
20260831222856 85 341 3.5 10.4 0.00 0.00 0.00 20 1006.9
20260831222357 85 9 2.6 7.8 0.00 0.00 0.00 20 1007.0
20260831221857 84 35 3.5 8.7 0.00 0.00 0.00 21 1007.0
20260831221356 83 350 3.5 9.6 0.00 0.00 0.00 21 1007.0
20260831220857 83 0 4.3 9.6 0.00 0.00 0.00 21 1007.2
20260831220357 83 23 4.3 10.4 0.00 0.00 0.00 22 1007.2
20260831220124 83 355 3.5 10.4 0.00 0.00 0.00 21 1007.4
20260831215356 83 5 2.6 7.8 0.00 0.00 0.00 22 1007.4
20260831214859 83 22 3.5 10.4 0.00 0.00 0.00 23 1007.7
20260831214357 83 355 3.5 10.4 0.00 0.00 0.00 22 1007.7
20260831213856 82 5 3.5 8.7 0.00 0.00 0.00 23 1007.8
20260831213356 82 324 4.3 8.7 0.00 0.00 0.00 22 1007.7
20260831212857 82 54 4.3 9.6 0.00 0.00 0.00 22 1007.9
20260831212356 82 0 3.5 9.6 0.00 0.00 0.00 22 1008.0
20260831211849 82 59 2.6 7.8 0.00 0.00 0.00 22 1008.0
20260831211341 81 44 2.6 7.8 0.00 0.00 0.00 23 1008.1
20260831210836 81 355 3.5 12.2 0.00 0.00 0.00 23 1008.1
20260831210551 80 31 4.3 12.2 0.00 0.00 0.00 24 1008.1
20260831210048 80 330 4.3 10.4 0.00 0.00 0.00 23 1008.2
20260831205318 80 13 4.3 10.4 0.00 0.00 0.00 24 1008.3
20260831204812 80 34 3.5 8.7 0.00 0.00 0.00 25 1008.4
20260831204531 80 350 3.5 8.7 0.00 0.00 0.00 25 1008.5
20260831203801 80 28 4.3 9.6 0.00 0.00 0.00 25 1008.5
20260831203255 80 15 3.5 9.6 0.00 0.00 0.00 25 1008.5
20260831202748 80 19 3.5 9.6 0.00 0.00 0.00 26 1008.5
20260831202242 79 340 2.6 7.8 0.00 0.00 0.00 26 1008.7
20260831202008 78 5 1.7 7.0 0.00 0.00 0.00 26 1008.7
20260831201230 78 42 2.6 7.0 0.00 0.00 0.00 27 1009.0
20260831200729 78 45 2.6 7.0 0.00 0.00 0.00 27 1009.2
20260831200218 78 348 2.6 7.0 0.00 0.00 0.00 27 1009.3
20260831195712 77 311 2.6 6.1 0.00 0.00 0.00 28 1009.4
20260831195206 76 29 2.6 7.0 0.00 0.00 0.00 29 1009.5
20260831194924 76 349 2.6 7.0 0.00 0.00 0.00 28 1009.6
20260831194154 76 13 1.7 7.0 0.00 0.00 0.00 29 1009.7
20260831193911 76 25 1.7 6.1 0.00 0.00 0.00 29 1009.7
20260831193141 75 11 2.6 7.0 0.00 0.00 0.00 28 1009.8
20260831192636 75 36 2.6 7.0 0.00 0.00 0.00 29 1009.8
20260831192130 75 51 1.7 7.0 0.00 0.00 0.00 30 1009.9
20260831192119 75 15 1.7 7.0 0.00 0.00 0.00 29 1009.9
20260831191118 75 17 1.7 7.0 0.00 0.00 0.00 30 1010.1
20260831190612 74 34 1.7 4.3 0.00 0.00 0.00 28 1010.1
20260831190106 74 0 2.6 7.0 0.00 0.00 0.00 30 1010.3
20260831185600 73 311 2.6 7.0 0.00 0.00 0.00 30 1010.4
20260831185054 73 349 2.6 6.1 0.00 0.00 0.00 30 1010.5
20260831184548 73 257 2.6 6.1 0.00 0.00 0.00 30 1010.6
20260831184042 72 296 2.6 6.1 0.00 0.00 0.00 32 1010.6
20260831183535 72 265 2.6 5.2 0.00 0.00 0.00 30 1010.7
20260831183030 72 304 2.6 4.3 0.00 0.00 0.00 32 1010.8
20260831182524 71 342 1.7 4.3 0.00 0.00 0.00 33 1010.8
20260831182018 71 0 1.7 5.2 0.00 0.00 0.00 33 1010.9
20260831181512 70 344 1.7 5.2 0.00 0.00 0.00 34 1010.9
20260831181458 70 0 1.7 5.2 0.00 0.00 0.00 33 1011.0
20260831180500 69 55 0.9 3.5 0.00 0.00 0.00 35 1011.1
20260831175953 69 56 0.9 3.5 0.00 0.00 0.00 36 1011.3
20260831175448 68 322 1.7 4.3 0.00 0.00 0.00 36 1011.3
20260831174947 68 351 1.7 4.3 0.00 0.00 0.00 36 1011.3
20260831174716 67 346 1.7 4.3 0.00 0.00 0.00 38 1011.3
20260831174211 66 355 1.7 3.5 0.00 0.00 0.00 41 1011.4
20260831173714 66 322 0.9 3.5 0.00 0.00 0.00 41 1011.5
20260831172946 65 323 1.7 3.5 0.00 0.00 0.00 41 1011.5
20260831172755 65 288 0.9 3.5 0.00 0.00 0.00 41 1011.6
20260831172253 65 258 0.9 4.3 0.00 0.00 0.00 42 1011.7
20260831171446 65 261 0.9 4.3 0.00 0.00 0.00 42 1011.7
20260831171436 64 279 0.9 3.5 0.00 0.00 0.00 43 1011.7
20260831170446 64 157 0.9 3.5 0.00 0.00 0.00 43 1011.8
20260831165946 64 159 0.9 3.5 0.00 0.00 0.00 43 1011.8
20260831165505 63 143 0.0 1.7 0.00 0.00 0.00 43 1011.8
20260831165501 63 161 0.0 1.7 0.00 0.00 0.00 43 1011.8
20260831164446 62 139 0.0 1.7 0.00 0.00 0.00 42 1011.9
20260831163946 61 139 0.9 3.5 0.00 0.00 0.00 43 1012.0
20260831163445 60 139 0.9 3.5 0.00 0.00 0.00 44 1012.0
20260831162943 60 140 0.9 3.5 0.00 0.00 0.00 44 1012.0
20260831162445 60 149 0.9 2.6 0.00 0.00 0.00 44 1012.1
20260831161943 59 129 0.9 2.6 0.00 0.00 0.00 45 1012.1
20260831161437 58 146 0.9 2.6 0.00 0.00 0.00 46 1012.1